Voltar ao catálogo

COSMOS 2491 DEB

AtivoPO
NORAD 44912·DEBRIS·🇷🇺 Russia

Lançado Dec 25, 2013 de Plesetsk Cosmodrome

Loading…

Próximas Passagens (próximas 24 horas)

TLE

AtualizadoSource: Space-Track

Época: Sep 14, 2026, 03:21 UTC

1 44912U 13076F   26257.13979420  .00005802  00000-0  23543-1 0  9997
2 44912  82.4398  45.0503 0207800 261.8416  95.9068 12.79142395309268

Acompanhe COSMOS 2491 DEB em tempo real com AllMySat

Download on the App Store